N926 ENVA-ENHV

Flight info

Callsign N926
Flight time 2h 46m
Altitude 26000
Route BDF
Aircraft PC12/L-VGD/A

Departure

Time 2026-04-25 14:59
Airport Trondheim Airport, Værnes (ENVA)

Arrival

Time 2026-04-25 17:46
Airport Honningsvåg Airport, Valan (ENHV)
Time Latitude Longitude Altitude Speed Heading
2026-04-25 14:33 63.45266 10.91894 42 ft 0 kts 322°
2026-04-25 14:52 63.45286 10.91896 42 ft 7 kts 44°
2026-04-25 14:52 63.45278 10.92010 43 ft 8 kts 96°
2026-04-25 14:52 63.45291 10.92136 44 ft 9 kts 76°
2026-04-25 14:52 63.45294 10.92223 44 ft 9 kts 88°
2026-04-25 14:53 63.45304 10.92405 45 ft 9 kts 53°
2026-04-25 14:53 63.45364 10.92428 46 ft 9 kts 357°
2026-04-25 14:53 63.45423 10.92426 46 ft 8 kts
2026-04-25 14:53 63.45474 10.92428 46 ft 7 kts 359°
2026-04-25 14:54 63.45518 10.92423 46 ft 6 kts 355°
2026-04-25 14:54 63.45554 10.92415 46 ft 4 kts 354°
2026-04-25 14:54 63.45580 10.92420 46 ft 4 kts 28°
2026-04-25 14:54 63.45594 10.92467 47 ft 4 kts 77°
2026-04-25 14:55 63.45595 10.92547 47 ft 7 kts 90°
2026-04-25 14:55 63.45594 10.92685 48 ft 10 kts 91°
2026-04-25 14:55 63.45594 10.92867 49 ft 13 kts 90°
2026-04-25 14:55 63.45593 10.93084 51 ft 15 kts 90°
2026-04-25 14:56 63.45593 10.93326 52 ft 15 kts 90°
2026-04-25 14:56 63.45592 10.93557 53 ft 14 kts 91°
2026-04-25 14:56 63.45595 10.93774 54 ft 13 kts 79°
2026-04-25 14:56 63.45628 10.93903 56 ft 9 kts 46°
2026-04-25 14:57 63.45661 10.93977 58 ft 0 kts 44°
2026-04-25 14:57 63.45665 10.93987 58 ft 4 kts 44°
2026-04-25 14:58 63.45694 10.94047 59 ft 6 kts 43°
2026-04-25 14:58 63.45751 10.94060 60 ft 13 kts 298°
2026-04-25 14:58 63.45756 10.93809 57 ft 23 kts 270°
2026-04-25 14:58 63.45757 10.93254 54 ft 55 kts 270°
2026-04-25 14:59 63.45779 10.92103 43 ft 90 kts 273°
2026-04-25 14:59 63.45757 10.90551 95 ft 106 kts 272°
2026-04-25 14:59 63.45737 10.88894 361 ft 104 kts 271°
2026-04-25 14:59 63.45698 10.87289 702 ft 103 kts 271°
2026-04-25 15:00 63.45655 10.85708 1063 ft 100 kts 271°
2026-04-25 15:00 63.45605 10.84202 1425 ft 93 kts 271°
2026-04-25 15:00 63.45554 10.82829 1788 ft 83 kts 272°
2026-04-25 15:00 63.45479 10.81593 2003 ft 88 kts 272°
2026-04-25 15:01 63.45398 10.80107 2221 ft 96 kts 271°
2026-04-25 15:01 63.45308 10.78690 2603 ft 88 kts 271°
2026-04-25 15:01 63.45199 10.77232 2748 ft 101 kts 271°
2026-04-25 15:01 63.45074 10.75801 3113 ft 91 kts 271°
2026-04-25 15:02 63.44937 10.74304 3279 ft 101 kts 271°
2026-04-25 15:02 63.44790 10.72868 3636 ft 93 kts 270°
2026-04-25 15:02 63.44646 10.71347 3843 ft 101 kts 274°
2026-04-25 15:02 63.44897 10.70189 4074 ft 91 kts 343°
2026-04-25 15:03 63.45530 10.70742 4343 ft 102 kts 28°
2026-04-25 15:03 63.46041 10.71706 4744 ft 92 kts 28°
2026-04-25 15:03 63.46519 10.72642 5035 ft 92 kts 27°
2026-04-25 15:03 63.47026 10.73619 5335 ft 95 kts 27°
2026-04-25 15:04 63.47487 10.74552 5650 ft 89 kts 28°
2026-04-25 15:04 63.48007 10.75555 5841 ft 101 kts 28°
2026-04-25 15:04 63.48488 10.76538 6245 ft 90 kts 28°
2026-04-25 15:04 63.48970 10.77521 6445 ft 99 kts 28°
2026-04-25 15:05 63.49457 10.78510 6834 ft 90 kts 27°
2026-04-25 15:05 63.49940 10.79486 7015 ft 102 kts 28°
2026-04-25 15:05 63.50469 10.80515 7335 ft 103 kts 28°
2026-04-25 15:06 63.51571 10.82634 7838 ft 108 kts 26°
2026-04-25 15:06 63.52161 10.83785 8096 ft 117 kts 27°
2026-04-25 15:06 63.52801 10.85051 8354 ft 128 kts 28°
2026-04-25 15:06 63.53503 10.86408 8620 ft 140 kts 28°
2026-04-25 15:07 63.54279 10.87857 8873 ft 154 kts 28°
2026-04-25 15:07 63.55126 10.89388 9122 ft 159 kts 28°
2026-04-25 15:07 63.56009 10.90980 9377 ft 167 kts 29°
2026-04-25 15:07 63.56949 10.92622 9626 ft 178 kts 28°
2026-04-25 15:08 63.57943 10.94340 9886 ft 184 kts 28°
2026-04-25 15:08 63.58973 10.96110 9994 ft 192 kts 28°
2026-04-25 15:08 63.60082 10.97970 9997 ft 207 kts 28°
2026-04-25 15:08 63.61247 10.99888 10007 ft 209 kts 28°
2026-04-25 15:09 63.62428 11.01838 9998 ft 213 kts 28°
2026-04-25 15:09 63.63607 11.03770 9996 ft 214 kts 28°
2026-04-25 15:09 63.66036 11.07718 10004 ft 214 kts 28°
2026-04-25 15:10 63.67207 11.09673 10236 ft 206 kts 28°
2026-04-25 15:10 63.67960 11.10933 10384 ft 203 kts 28°
2026-04-25 15:11 63.71730 11.17247 11139 ft 199 kts 28°
2026-04-25 15:11 63.72835 11.19132 11364 ft 198 kts 28°
2026-04-25 15:11 63.73932 11.21006 11589 ft 198 kts 28°
2026-04-25 15:12 63.76134 11.24755 12036 ft 198 kts 28°
2026-04-25 15:12 63.77135 11.26895 12265 ft 204 kts 42°
2026-04-25 15:12 63.77986 11.29479 12485 ft 206 kts 45°
2026-04-25 15:12 63.78267 11.30368 12562 ft 206 kts 45°
2026-04-25 15:13 63.79641 11.34782 12937 ft 208 kts 45°
2026-04-25 15:13 63.81310 11.40148 13388 ft 210 kts 45°
2026-04-25 15:13 63.82156 11.42849 13615 ft 209 kts 45°
2026-04-25 15:14 63.83005 11.45568 13840 ft 212 kts 45°
2026-04-25 15:14 63.83844 11.48277 14061 ft 213 kts 45°
2026-04-25 15:14 63.84694 11.51020 14288 ft 213 kts 45°
2026-04-25 15:14 63.85551 11.53776 14505 ft 214 kts 45°
2026-04-25 15:15 63.86409 11.56551 14739 ft 215 kts 45°
2026-04-25 15:15 63.87273 11.59342 14964 ft 217 kts 45°
2026-04-25 15:15 63.88141 11.62144 15187 ft 217 kts 45°
2026-04-25 15:15 63.89016 11.64960 15417 ft 219 kts 45°
2026-04-25 15:16 63.89883 11.67747 15639 ft 219 kts 45°
2026-04-25 15:16 63.90761 11.70573 15863 ft 219 kts 45°
2026-04-25 15:16 63.92523 11.76244 16313 ft 220 kts 45°
2026-04-25 15:17 63.94648 11.80785 16766 ft 205 kts 24°
2026-04-25 15:17 63.95859 11.82474 16991 ft 204 kts 22°
2026-04-25 15:17 63.97065 11.84108 17215 ft 205 kts 22°
2026-04-25 15:18 63.98292 11.85760 17439 ft 205 kts 22°
2026-04-25 15:18 64.00755 11.89068 17890 ft 206 kts 22°
2026-04-25 15:18 64.01992 11.90730 18115 ft 206 kts 22°
2026-04-25 15:19 64.03230 11.92394 18336 ft 207 kts 22°
2026-04-25 15:19 64.04053 11.93499 18491 ft 207 kts 22°
2026-04-25 15:19 64.05719 11.95744 18793 ft 209 kts 22°
2026-04-25 15:19 64.06952 11.97412 19014 ft 209 kts 22°
2026-04-25 15:20 64.08201 11.99106 19245 ft 209 kts 22°
2026-04-25 15:20 64.09453 12.00807 19465 ft 210 kts 22°
2026-04-25 15:20 64.10706 12.02520 19691 ft 210 kts 22°
2026-04-25 15:20 64.11959 12.04237 19916 ft 210 kts 22°
2026-04-25 15:21 64.13213 12.05956 20139 ft 210 kts 22°
2026-04-25 15:21 64.14467 12.07680 20366 ft 210 kts 22°
2026-04-25 15:21 64.15719 12.09411 20591 ft 210 kts 22°
2026-04-25 15:21 64.16970 12.11142 20815 ft 210 kts 22°
2026-04-25 15:22 64.18205 12.12853 21037 ft 210 kts 22°
2026-04-25 15:22 64.19453 12.14588 21261 ft 209 kts 22°
2026-04-25 15:22 64.20693 12.16328 21487 ft 209 kts 22°
2026-04-25 15:22 64.21932 12.18067 21711 ft 209 kts 22°
2026-04-25 15:23 64.23171 12.19807 21936 ft 209 kts 22°
2026-04-25 15:23 64.24410 12.21551 22161 ft 209 kts 23°
2026-04-25 15:23 64.25647 12.23298 22384 ft 209 kts 22°
2026-04-25 15:23 64.26884 12.25043 22610 ft 208 kts 22°
2026-04-25 15:24 64.28102 12.26767 22832 ft 208 kts 22°
2026-04-25 15:24 64.29337 12.28521 23057 ft 209 kts 22°
2026-04-25 15:24 64.30573 12.30281 23282 ft 209 kts 23°
2026-04-25 15:24 64.31393 12.31449 23432 ft 209 kts 22°
2026-04-25 15:25 64.33050 12.33815 23733 ft 210 kts 22°
2026-04-25 15:25 64.34287 12.35594 23958 ft 209 kts 23°
2026-04-25 15:25 64.35520 12.37377 24183 ft 208 kts 23°
2026-04-25 15:25 64.36740 12.39144 24408 ft 207 kts 23°
2026-04-25 15:26 64.37936 12.40880 24630 ft 205 kts 23°
2026-04-25 15:26 64.39138 12.42625 24849 ft 203 kts 23°
2026-04-25 15:26 64.40329 12.44357 25076 ft 202 kts 23°
2026-04-25 15:26 64.41512 12.46077 25301 ft 200 kts 23°
2026-04-25 15:27 64.42690 12.47789 25525 ft 199 kts 22°
2026-04-25 15:27 64.43854 12.49492 25749 ft 198 kts 23°
2026-04-25 15:27 64.46215 12.52921 25901 ft 207 kts 23°
2026-04-25 15:28 64.47446 12.54690 25910 ft 215 kts 23°
2026-04-25 15:28 64.48737 12.56521 25899 ft 220 kts 23°
2026-04-25 15:28 64.50059 12.58375 25900 ft 224 kts 23°
2026-04-25 15:28 64.51400 12.60247 25900 ft 226 kts 23°
2026-04-25 15:29 64.52759 12.62137 25899 ft 229 kts 23°
2026-04-25 15:29 64.54130 12.64049 25901 ft 231 kts 23°
2026-04-25 15:29 64.55516 12.65982 25899 ft 233 kts 23°
2026-04-25 15:29 64.56894 12.67903 25898 ft 234 kts 23°
2026-04-25 15:30 64.58293 12.69856 25899 ft 234 kts 23°
2026-04-25 15:30 64.59691 12.71814 25899 ft 235 kts 23°
2026-04-25 15:30 64.61092 12.73776 25898 ft 236 kts 23°
2026-04-25 15:30 64.62504 12.75743 25897 ft 237 kts 23°
2026-04-25 15:31 64.63924 12.77716 25897 ft 238 kts 23°
2026-04-25 15:31 64.65346 12.79694 25898 ft 238 kts 23°
2026-04-25 15:31 64.66771 12.81678 25899 ft 238 kts 23°
2026-04-25 15:31 64.68175 12.83634 25899 ft 239 kts 23°
2026-04-25 15:32 64.69603 12.85624 25898 ft 238 kts 23°
2026-04-25 15:32 64.71032 12.87615 25890 ft 240 kts 23°
2026-04-25 15:32 64.72464 12.89612 25890 ft 240 kts 23°
2026-04-25 15:33 64.75324 12.93610 25889 ft 239 kts 23°
2026-04-25 15:33 64.76752 12.95601 25885 ft 239 kts 23°
2026-04-25 15:33 64.78178 12.97586 25886 ft 238 kts 23°
2026-04-25 15:33 64.79580 12.99541 25885 ft 238 kts 23°
2026-04-25 15:34 64.81002 13.01523 25888 ft 238 kts 23°
2026-04-25 15:34 64.82422 13.03504 25887 ft 238 kts 23°
2026-04-25 15:34 64.83843 13.05493 25887 ft 238 kts 23°
2026-04-25 15:34 64.84785 13.06810 25885 ft 238 kts 23°
2026-04-25 15:35 64.88103 13.11475 25880 ft 237 kts 23°
2026-04-25 15:35 64.89520 13.13469 25878 ft 237 kts 24°
2026-04-25 15:35 64.90938 13.15460 25862 ft 237 kts 24°
2026-04-25 15:36 64.93762 13.19421 25863 ft 238 kts 24°
2026-04-25 15:36 64.95192 13.21426 25861 ft 240 kts 24°
2026-04-25 15:36 64.96627 13.23438 25862 ft 240 kts 24°
2026-04-25 15:37 64.98067 13.25458 25861 ft 241 kts 24°
2026-04-25 15:37 64.99510 13.27482 25861 ft 242 kts 24°
2026-04-25 15:37 65.00960 13.29516 25849 ft 242 kts 24°
2026-04-25 15:37 65.02408 13.31551 25849 ft 242 kts 24°
2026-04-25 15:38 65.03839 13.33560 25851 ft 243 kts 24°
2026-04-25 15:38 65.05292 13.35594 25850 ft 243 kts 24°
2026-04-25 15:38 65.06745 13.37631 25850 ft 243 kts 24°
2026-04-25 15:38 65.08197 13.39669 25847 ft 242 kts 24°
2026-04-25 15:39 65.09642 13.41697 25847 ft 241 kts 24°
2026-04-25 15:39 65.11079 13.43718 25847 ft 240 kts 24°
2026-04-25 15:39 65.12513 13.45743 25848 ft 240 kts 24°
2026-04-25 15:39 65.13946 13.47771 25841 ft 240 kts 24°
2026-04-25 15:40 65.15380 13.49798 25841 ft 240 kts 24°
2026-04-25 15:40 65.15845 13.50454 25841 ft 240 kts 24°
2026-04-25 15:40 65.18230 13.53819 25840 ft 239 kts 24°
2026-04-25 15:40 65.19662 13.55842 25843 ft 240 kts 24°
2026-04-25 15:41 65.21097 13.57876 25841 ft 240 kts 24°
2026-04-25 15:41 65.22532 13.59918 25841 ft 240 kts 24°
2026-04-25 15:41 65.23967 13.61963 25843 ft 241 kts 24°
2026-04-25 15:41 65.25407 13.64012 25843 ft 241 kts 24°
2026-04-25 15:42 65.26852 13.66057 25844 ft 242 kts 24°
2026-04-25 15:42 65.28284 13.68076 25843 ft 242 kts 24°
2026-04-25 15:42 65.29736 13.70125 25845 ft 242 kts 24°
2026-04-25 15:42 65.31192 13.72181 25841 ft 243 kts 24°
2026-04-25 15:43 65.32648 13.74245 25836 ft 243 kts 24°
2026-04-25 15:43 65.34095 13.76302 25829 ft 240 kts 24°
2026-04-25 15:43 65.35531 13.78352 25840 ft 241 kts 24°
2026-04-25 15:43 65.36971 13.80407 25829 ft 241 kts 24°
2026-04-25 15:44 65.38390 13.82437 25836 ft 241 kts 24°
2026-04-25 15:44 65.39830 13.84497 25832 ft 241 kts 24°
2026-04-25 15:44 65.41268 13.86561 25833 ft 240 kts 24°
2026-04-25 15:44 65.42704 13.88624 25834 ft 241 kts 24°
2026-04-25 15:45 65.44147 13.90700 25832 ft 242 kts 24°
2026-04-25 15:45 65.45592 13.92781 25833 ft 242 kts 24°
2026-04-25 15:45 65.47037 13.94864 25831 ft 242 kts 24°
2026-04-25 15:45 65.47505 13.95538 25831 ft 241 kts 24°
2026-04-25 15:46 65.49896 13.98985 25838 ft 241 kts 24°
2026-04-25 15:46 65.51335 14.01063 25832 ft 241 kts 24°
2026-04-25 15:46 65.52776 14.03146 25833 ft 242 kts 24°
2026-04-25 15:46 65.54223 14.05229 25833 ft 243 kts 24°
2026-04-25 15:47 65.55679 14.07325 25832 ft 244 kts 24°
2026-04-25 15:47 65.57136 14.09422 25836 ft 244 kts 24°
2026-04-25 15:47 65.58595 14.11525 25839 ft 244 kts 24°
2026-04-25 15:47 65.60037 14.13606 25838 ft 245 kts 24°
2026-04-25 15:48 65.61498 14.15716 25834 ft 245 kts 24°
2026-04-25 15:48 65.62962 14.17832 25834 ft 245 kts 24°
2026-04-25 15:48 65.64424 14.19945 25837 ft 245 kts 24°
2026-04-25 15:48 65.65885 14.22061 25838 ft 245 kts 24°
2026-04-25 15:49 65.67350 14.24183 25839 ft 246 kts 24°
2026-04-25 15:49 65.68814 14.26307 25831 ft 245 kts 24°
2026-04-25 15:49 65.70274 14.28432 25831 ft 245 kts 24°
2026-04-25 15:49 65.71715 14.30530 25835 ft 244 kts 24°
2026-04-25 15:50 65.73173 14.32653 25818 ft 245 kts 24°
2026-04-25 15:50 65.74634 14.34781 25811 ft 245 kts 24°
2026-04-25 15:50 65.76098 14.36917 25794 ft 246 kts 24°
2026-04-25 15:50 65.77568 14.39062 25777 ft 246 kts 24°
2026-04-25 15:51 65.79036 14.41209 25763 ft 246 kts 24°
2026-04-25 15:51 65.80007 14.42630 25751 ft 246 kts 24°
2026-04-25 15:51 65.81972 14.45508 25741 ft 246 kts 24°
2026-04-25 15:51 65.83439 14.47660 25742 ft 246 kts 24°
2026-04-25 15:52 65.84906 14.49815 25731 ft 246 kts 24°
2026-04-25 15:52 65.86369 14.51969 25731 ft 246 kts 24°
2026-04-25 15:52 65.87811 14.54094 25733 ft 246 kts 24°
2026-04-25 15:52 65.89279 14.56257 25731 ft 246 kts 24°
2026-04-25 15:53 65.90744 14.58420 25730 ft 246 kts 24°
2026-04-25 15:53 65.92211 14.60586 25730 ft 246 kts 24°
2026-04-25 15:53 65.93677 14.62747 25730 ft 246 kts 24°
2026-04-25 15:53 65.95145 14.64912 25729 ft 246 kts 24°
2026-04-25 15:54 65.96612 14.67080 25730 ft 246 kts 24°
2026-04-25 15:54 65.98058 14.69219 25729 ft 246 kts 24°
2026-04-25 15:54 65.99520 14.71387 25726 ft 244 kts 24°
2026-04-25 15:54 66.00970 14.73537 25728 ft 243 kts 24°
2026-04-25 15:55 66.01929 14.74960 25730 ft 243 kts 24°
2026-04-25 15:55 66.03657 14.77517 25728 ft 244 kts 24°
2026-04-25 15:55 66.05114 14.79670 25728 ft 244 kts 24°
2026-04-25 15:55 66.06573 14.81828 25730 ft 245 kts 24°
2026-04-25 15:56 66.08033 14.83990 25729 ft 245 kts 24°
2026-04-25 15:56 66.09472 14.86123 25730 ft 245 kts 24°
2026-04-25 15:56 66.10933 14.88291 25736 ft 246 kts 24°
2026-04-25 15:56 66.12401 14.90469 25734 ft 246 kts 25°
2026-04-25 15:57 66.13871 14.92642 25734 ft 246 kts 25°
2026-04-25 15:57 66.15336 14.94808 25734 ft 246 kts 25°
2026-04-25 15:57 66.16807 14.96983 25736 ft 246 kts 25°
2026-04-25 15:57 66.18282 14.99164 25746 ft 246 kts 25°
2026-04-25 15:58 66.19752 15.01345 25761 ft 246 kts 25°
2026-04-25 15:58 66.21201 15.03500 25771 ft 246 kts 25°
2026-04-25 15:58 66.22666 15.05681 25772 ft 246 kts 25°
2026-04-25 15:58 66.24133 15.07854 25772 ft 246 kts 25°
2026-04-25 15:59 66.25601 15.10027 25771 ft 246 kts 25°
2026-04-25 15:59 66.27074 15.12211 25774 ft 247 kts 25°
2026-04-25 15:59 66.28552 15.14405 25774 ft 248 kts 25°
2026-04-25 15:59 66.30029 15.16598 25772 ft 248 kts 25°
2026-04-25 16:00 66.31511 15.18802 25772 ft 248 kts 25°
2026-04-25 16:00 66.31996 15.19523 25774 ft 248 kts 25°
2026-04-25 16:00 66.34476 15.23221 25773 ft 248 kts 25°
2026-04-25 16:00 66.35941 15.25399 25772 ft 249 kts 25°
2026-04-25 16:01 66.37427 15.27606 25773 ft 249 kts 25°
2026-04-25 16:01 66.38913 15.29817 25773 ft 249 kts 25°
2026-04-25 16:01 66.40401 15.32033 25763 ft 250 kts 25°
2026-04-25 16:01 66.41895 15.34258 25750 ft 250 kts 25°
2026-04-25 16:02 66.43388 15.36487 25751 ft 250 kts 25°
2026-04-25 16:02 66.44882 15.38723 25751 ft 250 kts 25°
2026-04-25 16:02 66.46376 15.40963 25750 ft 250 kts 25°
2026-04-25 16:02 66.47847 15.43171 25750 ft 250 kts 25°
2026-04-25 16:03 66.49335 15.45408 25750 ft 250 kts 25°
2026-04-25 16:03 66.50823 15.47648 25750 ft 249 kts 25°
2026-04-25 16:03 66.52308 15.49889 25750 ft 249 kts 25°
2026-04-25 16:03 66.53796 15.52133 25750 ft 249 kts 25°
2026-04-25 16:04 66.55283 15.54370 25750 ft 249 kts 25°
2026-04-25 16:04 66.56772 15.56605 25752 ft 249 kts 25°
2026-04-25 16:04 66.58264 15.58847 25750 ft 250 kts 25°
2026-04-25 16:04 66.59734 15.61059 25753 ft 250 kts 25°
2026-04-25 16:05 66.61228 15.63309 25754 ft 250 kts 25°
2026-04-25 16:05 66.62720 15.65557 25755 ft 250 kts 25°
2026-04-25 16:05 66.65706 15.70067 25754 ft 250 kts 25°
2026-04-25 16:06 66.67197 15.72324 25752 ft 250 kts 25°
2026-04-25 16:06 66.68685 15.74582 25754 ft 250 kts 25°
2026-04-25 16:06 66.70156 15.76814 25755 ft 250 kts 25°
2026-04-25 16:06 66.71647 15.79080 25755 ft 250 kts 25°
2026-04-25 16:07 66.73139 15.81349 25754 ft 250 kts 25°
2026-04-25 16:07 66.73643 15.82115 25755 ft 250 kts 25°
2026-04-25 16:07 66.76123 15.85889 25761 ft 250 kts 25°
2026-04-25 16:07 66.77614 15.88159 25761 ft 250 kts 25°
2026-04-25 16:08 66.79104 15.90433 25761 ft 250 kts 25°
2026-04-25 16:08 66.80591 15.92705 25763 ft 249 kts 25°
2026-04-25 16:08 66.82058 15.94951 25765 ft 250 kts 25°
2026-04-25 16:08 66.83547 15.97221 25762 ft 249 kts 25°
2026-04-25 16:09 66.85036 15.99483 25763 ft 249 kts 25°
2026-04-25 16:09 66.86526 16.01745 25763 ft 249 kts 25°
2026-04-25 16:09 66.88018 16.04005 25763 ft 250 kts 25°
2026-04-25 16:09 66.89516 16.06271 25763 ft 251 kts 25°
2026-04-25 16:10 66.90508 16.07775 25764 ft 251 kts 25°
2026-04-25 16:10 66.92519 16.10821 25763 ft 252 kts 25°
2026-04-25 16:10 66.94004 16.13072 25763 ft 252 kts 25°
2026-04-25 16:10 66.95509 16.15343 25764 ft 252 kts 25°
2026-04-25 16:11 66.97019 16.17618 25765 ft 252 kts 25°
2026-04-25 16:11 66.98529 16.19894 25764 ft 252 kts 25°
2026-04-25 16:11 67.00040 16.22174 25766 ft 253 kts 25°
2026-04-25 16:11 67.01554 16.24461 25764 ft 253 kts 25°
2026-04-25 16:12 67.03066 16.26748 25765 ft 252 kts 25°
2026-04-25 16:12 67.04577 16.29037 25763 ft 252 kts 25°
2026-04-25 16:12 67.06090 16.31331 25765 ft 252 kts 25°
2026-04-25 16:12 67.06578 16.32073 25764 ft 253 kts 25°
2026-04-25 16:13 67.09090 16.35884 25764 ft 252 kts 25°
2026-04-25 16:13 67.10600 16.38177 25764 ft 252 kts 25°
2026-04-25 16:13 67.12108 16.40471 25753 ft 252 kts 26°
2026-04-25 16:13 67.13621 16.42763 25751 ft 252 kts 26°
2026-04-25 16:14 67.15132 16.45051 25751 ft 252 kts 26°
2026-04-25 16:14 67.16647 16.47345 25750 ft 252 kts 26°
2026-04-25 16:14 67.18160 16.49640 25750 ft 253 kts 26°
2026-04-25 16:14 67.19655 16.51911 25750 ft 253 kts 26°
2026-04-25 16:15 67.21174 16.54221 25750 ft 253 kts 26°
2026-04-25 16:15 67.22689 16.56528 25748 ft 253 kts 26°
2026-04-25 16:15 67.24201 16.58836 25749 ft 253 kts 26°
2026-04-25 16:15 67.25715 16.61148 25747 ft 252 kts 26°
2026-04-25 16:16 67.27223 16.63454 25748 ft 252 kts 26°
2026-04-25 16:16 67.28729 16.65758 25748 ft 252 kts 26°
2026-04-25 16:16 67.30239 16.68074 25742 ft 252 kts 26°
2026-04-25 16:16 67.31749 16.70393 25741 ft 253 kts 26°
2026-04-25 16:17 67.33240 16.72685 25741 ft 252 kts 26°
2026-04-25 16:17 67.34751 16.75009 25741 ft 253 kts 26°
2026-04-25 16:17 67.36265 16.77329 25740 ft 253 kts 26°
2026-04-25 16:17 67.37783 16.79652 25740 ft 253 kts 26°
2026-04-25 16:18 67.39302 16.81980 25740 ft 253 kts 26°
2026-04-25 16:18 67.39813 16.82764 25739 ft 253 kts 26°
2026-04-25 16:18 67.42335 16.86642 25732 ft 253 kts 26°
2026-04-25 16:18 67.43852 16.88979 25733 ft 253 kts 26°
2026-04-25 16:19 67.45348 16.91289 25733 ft 254 kts 26°
2026-04-25 16:19 67.46866 16.93636 25732 ft 253 kts 26°
2026-04-25 16:19 67.48383 16.95986 25733 ft 254 kts 26°
2026-04-25 16:20 67.50905 16.99900 25732 ft 254 kts 26°
2026-04-25 16:20 67.52935 17.03057 25733 ft 254 kts 26°
2026-04-25 16:20 67.55978 17.07772 25733 ft 254 kts 26°
2026-04-25 16:21 67.57502 17.10136 25732 ft 254 kts 26°
2026-04-25 16:21 67.59002 17.12463 25732 ft 254 kts 26°
2026-04-25 16:21 67.60521 17.14825 25730 ft 254 kts 26°
2026-04-25 16:21 67.62038 17.17189 25731 ft 253 kts 26°
2026-04-25 16:22 67.63555 17.19558 25732 ft 254 kts 26°
2026-04-25 16:22 67.65078 17.21938 25731 ft 255 kts 26°
2026-04-25 16:22 67.66601 17.24321 25732 ft 255 kts 26°
2026-04-25 16:22 67.68127 17.26711 25731 ft 255 kts 26°
2026-04-25 16:23 67.69630 17.29065 25730 ft 255 kts 26°
2026-04-25 16:23 67.71154 17.31445 25730 ft 255 kts 26°
2026-04-25 16:23 67.72681 17.33828 25731 ft 255 kts 26°
2026-04-25 16:23 67.74207 17.36212 25730 ft 255 kts 26°
2026-04-25 16:24 67.75731 17.38597 25730 ft 255 kts 26°
2026-04-25 16:24 67.77255 17.40984 25730 ft 255 kts 26°
2026-04-25 16:24 67.78780 17.43376 25731 ft 255 kts 26°
2026-04-25 16:24 67.80305 17.45772 25731 ft 255 kts 26°
2026-04-25 16:25 67.81810 17.48139 25732 ft 255 kts 26°
2026-04-25 16:25 67.82324 17.48949 25732 ft 255 kts 26°
2026-04-25 16:25 67.84859 17.52951 25730 ft 255 kts 26°
2026-04-25 16:25 67.86383 17.55362 25731 ft 255 kts 26°
2026-04-25 16:26 67.87908 17.57777 25716 ft 256 kts 26°
2026-04-25 16:26 67.89439 17.60188 25712 ft 256 kts 26°
2026-04-25 16:26 67.90968 17.62598 25712 ft 256 kts 26°
2026-04-25 16:26 67.92478 17.64979 25713 ft 256 kts 26°
2026-04-25 16:27 67.94010 17.67399 25712 ft 256 kts 26°
2026-04-25 16:27 67.95538 17.69814 25711 ft 255 kts 26°
2026-04-25 16:27 67.97066 17.72234 25712 ft 256 kts 26°
2026-04-25 16:27 67.98594 17.74657 25712 ft 255 kts 26°
2026-04-25 16:28 68.00119 17.77083 25711 ft 256 kts 26°
2026-04-25 16:28 68.01647 17.79513 25713 ft 256 kts 26°
2026-04-25 16:28 68.03177 17.81947 25712 ft 255 kts 26°
2026-04-25 16:28 68.04681 17.84342 25713 ft 255 kts 26°
2026-04-25 16:29 68.06206 17.86777 25712 ft 255 kts 26°
2026-04-25 16:29 68.07733 17.89215 25714 ft 256 kts 26°
2026-04-25 16:29 68.09263 17.91661 25713 ft 256 kts 26°
2026-04-25 16:29 68.10791 17.94112 25713 ft 256 kts 27°
2026-04-25 16:30 68.12324 17.96573 25713 ft 257 kts 27°
2026-04-25 16:30 68.13854 17.99033 25712 ft 256 kts 27°
2026-04-25 16:30 68.15383 18.01496 25713 ft 256 kts 27°
2026-04-25 16:30 68.16891 18.03927 25713 ft 256 kts 27°
2026-04-25 16:31 68.18418 18.06394 25713 ft 256 kts 27°
2026-04-25 16:31 68.19945 18.08859 25712 ft 256 kts 27°
2026-04-25 16:31 68.21469 18.11326 25711 ft 256 kts 27°
2026-04-25 16:31 68.22991 18.13795 25712 ft 255 kts 27°
2026-04-25 16:32 68.24512 18.16251 25711 ft 255 kts 27°
2026-04-25 16:32 68.26034 18.18700 25713 ft 255 kts 27°
2026-04-25 16:32 68.27539 18.21128 25713 ft 255 kts 27°
2026-04-25 16:32 68.29066 18.23592 25713 ft 256 kts 27°
2026-04-25 16:33 68.30592 18.26057 25712 ft 256 kts 27°
2026-04-25 16:33 68.32119 18.28525 25712 ft 255 kts 27°
2026-04-25 16:33 68.33640 18.30991 25712 ft 255 kts 27°
2026-04-25 16:33 68.35162 18.33449 25713 ft 255 kts 27°
2026-04-25 16:34 68.36687 18.35902 25711 ft 255 kts 27°
2026-04-25 16:34 68.38212 18.38356 25713 ft 255 kts 27°
2026-04-25 16:34 68.39717 18.40779 25713 ft 255 kts 27°
2026-04-25 16:34 68.41243 18.43235 25714 ft 255 kts 27°
2026-04-25 16:35 68.42774 18.45689 25713 ft 256 kts 27°
2026-04-25 16:35 68.47352 18.53024 25712 ft 255 kts 27°
2026-04-25 16:36 68.48880 18.55475 25712 ft 255 kts 27°
2026-04-25 16:36 68.49395 18.56299 25713 ft 255 kts 27°
2026-04-25 16:36 68.51941 18.60359 25713 ft 255 kts 27°
2026-04-25 16:36 68.53471 18.62795 25712 ft 254 kts 27°
2026-04-25 16:37 68.55000 18.65232 25713 ft 254 kts 27°
2026-04-25 16:37 68.56529 18.67665 25713 ft 255 kts 27°
2026-04-25 16:37 68.58063 18.70098 25714 ft 254 kts 27°
2026-04-25 16:37 68.59595 18.72526 25714 ft 255 kts 27°
2026-04-25 16:38 68.61109 18.74928 25714 ft 255 kts 27°
2026-04-25 16:38 68.62645 18.77364 25714 ft 255 kts 27°
2026-04-25 16:38 68.64182 18.79803 25714 ft 255 kts 27°
2026-04-25 16:38 68.65719 18.82239 25713 ft 255 kts 27°
2026-04-25 16:39 68.67256 18.84670 25712 ft 255 kts 27°
2026-04-25 16:39 68.68793 18.87098 25713 ft 255 kts 27°
2026-04-25 16:39 68.70327 18.89523 25712 ft 254 kts 27°
2026-04-25 16:39 68.71839 18.91912 25712 ft 254 kts 27°
2026-04-25 16:40 68.73370 18.94337 25712 ft 254 kts 27°
2026-04-25 16:40 68.74902 18.96762 25712 ft 254 kts 27°
2026-04-25 16:40 68.76432 18.99186 25712 ft 254 kts 27°
2026-04-25 16:40 68.77963 19.01603 25712 ft 254 kts 27°
2026-04-25 16:41 68.79497 19.04020 25713 ft 254 kts 27°
2026-04-25 16:41 68.79993 19.04803 25713 ft 254 kts 27°
2026-04-25 16:41 68.84080 19.11241 25714 ft 254 kts 27°
2026-04-25 16:42 68.85619 19.13670 25714 ft 254 kts 27°
2026-04-25 16:42 68.87156 19.16100 25712 ft 254 kts 27°
2026-04-25 16:42 68.88691 19.18530 25713 ft 254 kts 27°
2026-04-25 16:42 68.90227 19.20960 25713 ft 254 kts 28°
2026-04-25 16:43 68.91764 19.23386 25714 ft 254 kts 28°
2026-04-25 16:43 68.93304 19.25810 25712 ft 254 kts 28°
2026-04-25 16:43 68.94842 19.28233 25714 ft 254 kts 27°
2026-04-25 16:43 68.96361 19.30627 25714 ft 254 kts 28°
2026-04-25 16:44 68.97901 19.33056 25713 ft 254 kts 28°
2026-04-25 16:44 68.99439 19.35481 25713 ft 254 kts 28°
2026-04-25 16:44 69.00980 19.37912 25713 ft 254 kts 28°
2026-04-25 16:44 69.02520 19.40342 25713 ft 254 kts 28°
2026-04-25 16:45 69.04060 19.42773 25698 ft 254 kts 28°
2026-04-25 16:45 69.05602 19.45208 25687 ft 254 kts 28°
2026-04-25 16:45 69.07140 19.47639 25698 ft 254 kts 28°
2026-04-25 16:45 69.08677 19.50061 25698 ft 253 kts 28°
2026-04-25 16:46 69.10214 19.52479 25698 ft 253 kts 28°
2026-04-25 16:46 69.11731 19.54865 25699 ft 254 kts 28°
2026-04-25 16:46 69.13271 19.57287 25698 ft 254 kts 28°
2026-04-25 16:46 69.13789 19.58102 25700 ft 254 kts 28°
2026-04-25 16:47 69.16299 19.62344 25698 ft 254 kts 36°
2026-04-25 16:47 69.17650 19.65539 25700 ft 254 kts 40°
2026-04-25 16:47 69.18965 19.68881 25699 ft 255 kts 40°
2026-04-25 16:47 69.20272 19.72250 25698 ft 254 kts 41°
2026-04-25 16:48 69.21557 19.75574 25699 ft 255 kts 41°
2026-04-25 16:48 69.22861 19.78945 25697 ft 254 kts 41°
2026-04-25 16:48 69.24166 19.82311 25697 ft 254 kts 41°
2026-04-25 16:48 69.25471 19.85673 25698 ft 254 kts 41°
2026-04-25 16:49 69.26774 19.89033 25698 ft 254 kts 41°
2026-04-25 16:49 69.28080 19.92403 25699 ft 254 kts 41°
2026-04-25 16:49 69.29383 19.95772 25699 ft 254 kts 41°
2026-04-25 16:49 69.30687 19.99147 25700 ft 254 kts 41°
2026-04-25 16:50 69.31974 20.02480 25699 ft 254 kts 41°
2026-04-25 16:50 69.33285 20.05849 25695 ft 255 kts 41°
2026-04-25 16:50 69.34600 20.09218 25695 ft 255 kts 41°
2026-04-25 16:50 69.35914 20.12591 25694 ft 255 kts 41°
2026-04-25 16:51 69.37225 20.15965 25695 ft 255 kts 41°
2026-04-25 16:51 69.38539 20.19348 25693 ft 255 kts 41°
2026-04-25 16:51 69.39853 20.22734 25690 ft 255 kts 41°
2026-04-25 16:51 69.40279 20.23833 25690 ft 255 kts 41°
2026-04-25 16:52 69.42458 20.29453 25688 ft 254 kts 41°
2026-04-25 16:52 69.43768 20.32835 25690 ft 254 kts 41°
2026-04-25 16:52 69.45078 20.36220 25686 ft 254 kts 41°
2026-04-25 16:52 69.46387 20.39606 25686 ft 254 kts 41°
2026-04-25 16:53 69.49003 20.46395 25676 ft 255 kts 41°
2026-04-25 16:53 69.50312 20.49794 25677 ft 255 kts 41°
2026-04-25 16:53 69.51605 20.53152 25676 ft 255 kts 41°
2026-04-25 16:54 69.52914 20.56555 25676 ft 255 kts 41°
2026-04-25 16:54 69.54223 20.59965 25677 ft 255 kts 41°
2026-04-25 16:54 69.55533 20.63383 25676 ft 255 kts 41°
2026-04-25 16:54 69.56842 20.66798 25675 ft 255 kts 41°
2026-04-25 16:55 69.58149 20.70213 25675 ft 254 kts 41°
2026-04-25 16:55 69.59439 20.73585 25676 ft 254 kts 41°
2026-04-25 16:55 69.60746 20.77007 25673 ft 255 kts 41°
2026-04-25 16:55 69.62054 20.80435 25676 ft 255 kts 41°
2026-04-25 16:56 69.63365 20.83864 25674 ft 255 kts 41°
2026-04-25 16:56 69.64677 20.87298 25677 ft 255 kts 41°
2026-04-25 16:56 69.65989 20.90733 25676 ft 255 kts 41°
2026-04-25 16:56 69.67304 20.94174 25677 ft 255 kts 41°
2026-04-25 16:57 69.68616 20.97611 25677 ft 255 kts 41°
2026-04-25 16:57 69.69043 20.98729 25675 ft 255 kts 42°
2026-04-25 16:57 69.71228 21.04460 25677 ft 256 kts 42°
2026-04-25 16:57 69.72546 21.07912 25677 ft 256 kts 42°
2026-04-25 16:58 69.73865 21.11363 25677 ft 256 kts 42°
2026-04-25 16:58 69.75186 21.14816 25676 ft 256 kts 42°
2026-04-25 16:58 69.76506 21.18265 25677 ft 256 kts 42°
2026-04-25 16:58 69.77827 21.21712 25676 ft 256 kts 42°
2026-04-25 16:59 69.79149 21.25158 25672 ft 255 kts 42°
2026-04-25 16:59 69.80450 21.28542 25674 ft 255 kts 42°
2026-04-25 16:59 69.81773 21.31983 25674 ft 256 kts 42°
2026-04-25 16:59 69.83097 21.35425 25674 ft 256 kts 42°
2026-04-25 17:00 69.84422 21.38869 25675 ft 256 kts 42°
2026-04-25 17:00 69.85749 21.42309 25675 ft 256 kts 42°
2026-04-25 17:00 69.87075 21.45743 25674 ft 256 kts 42°
2026-04-25 17:00 69.88403 21.49178 25674 ft 255 kts 42°
2026-04-25 17:01 69.89729 21.52605 25674 ft 255 kts 42°
2026-04-25 17:01 69.91039 21.55984 25676 ft 255 kts 42°
2026-04-25 17:01 69.92369 21.59419 25667 ft 256 kts 42°
2026-04-25 17:01 69.93700 21.62854 25667 ft 256 kts 42°
2026-04-25 17:02 69.95031 21.66282 25667 ft 255 kts 42°
2026-04-25 17:02 69.96363 21.69706 25667 ft 255 kts 42°
2026-04-25 17:02 69.97694 21.73126 25667 ft 255 kts 42°
2026-04-25 17:02 69.98126 21.74235 25667 ft 255 kts 42°
2026-04-25 17:03 70.00355 21.79971 25667 ft 255 kts 42°
2026-04-25 17:03 70.01667 21.83338 25667 ft 255 kts 42°
2026-04-25 17:03 70.02999 21.86754 25666 ft 254 kts 42°
2026-04-25 17:03 70.04328 21.90162 25664 ft 254 kts 42°
2026-04-25 17:04 70.05656 21.93581 25665 ft 254 kts 42°
2026-04-25 17:04 70.06985 21.97002 25665 ft 254 kts 42°
2026-04-25 17:04 70.08314 22.00432 25665 ft 254 kts 42°
2026-04-25 17:04 70.09642 22.03860 25665 ft 254 kts 43°
2026-04-25 17:05 70.10966 22.07289 25664 ft 254 kts 42°
2026-04-25 17:05 70.13600 22.14131 25517 ft 256 kts 43°
2026-04-25 17:05 70.14935 22.17614 25317 ft 257 kts 43°
2026-04-25 17:06 70.16273 22.21111 25118 ft 257 kts 43°
2026-04-25 17:06 70.17613 22.24608 24918 ft 257 kts 43°
2026-04-25 17:06 70.18953 22.28097 24717 ft 257 kts 43°
2026-04-25 17:06 70.20294 22.31576 24517 ft 256 kts 43°
2026-04-25 17:07 70.21632 22.35048 24305 ft 256 kts 43°
2026-04-25 17:07 70.22970 22.38509 24117 ft 256 kts 43°
2026-04-25 17:07 70.24306 22.41948 23916 ft 255 kts 43°
2026-04-25 17:07 70.25626 22.45331 23719 ft 254 kts 43°
2026-04-25 17:08 70.26961 22.48757 23516 ft 254 kts 43°
2026-04-25 17:08 70.28292 22.52171 23318 ft 253 kts 43°
2026-04-25 17:08 70.29620 22.55586 23120 ft 253 kts 43°
2026-04-25 17:08 70.30945 22.59009 22920 ft 253 kts 43°
2026-04-25 17:09 70.32267 22.62440 22719 ft 252 kts 43°
2026-04-25 17:09 70.33588 22.65872 22520 ft 252 kts 43°
2026-04-25 17:09 70.34886 22.69255 22324 ft 252 kts 43°
2026-04-25 17:09 70.36204 22.72692 22118 ft 252 kts 43°
2026-04-25 17:10 70.37517 22.76113 21921 ft 250 kts 43°
2026-04-25 17:10 70.38826 22.79524 21721 ft 250 kts 43°
2026-04-25 17:10 70.40131 22.82939 21521 ft 250 kts 43°
2026-04-25 17:10 70.41434 22.86351 21320 ft 249 kts 43°
2026-04-25 17:11 70.42733 22.89757 21120 ft 248 kts 43°
2026-04-25 17:11 70.44027 22.93159 20916 ft 248 kts 43°
2026-04-25 17:11 70.45300 22.96520 20723 ft 248 kts 43°
2026-04-25 17:11 70.46589 22.99931 20523 ft 247 kts 43°
2026-04-25 17:12 70.47876 23.03340 20322 ft 247 kts 43°
2026-04-25 17:12 70.49162 23.06748 20121 ft 247 kts 43°
2026-04-25 17:12 70.50445 23.10156 19923 ft 247 kts 43°
2026-04-25 17:12 70.51726 23.13566 19722 ft 246 kts 44°
2026-04-25 17:13 70.53005 23.16978 19531 ft 246 kts 44°
2026-04-25 17:13 70.53420 23.18084 19456 ft 246 kts 44°
2026-04-25 17:13 70.55558 23.23776 19121 ft 245 kts 44°
2026-04-25 17:13 70.56811 23.27111 18924 ft 244 kts 44°
2026-04-25 17:14 70.58011 23.30673 18722 ft 242 kts 50°
2026-04-25 17:14 70.59044 23.34633 18521 ft 240 kts 57°
2026-04-25 17:14 70.59871 23.38972 18320 ft 239 kts 63°
2026-04-25 17:14 70.60624 23.43423 18120 ft 239 kts 64°
2026-04-25 17:15 70.61363 23.47896 17920 ft 239 kts 64°
2026-04-25 17:15 70.62100 23.52366 17720 ft 238 kts 64°
2026-04-25 17:15 70.62824 23.56783 17523 ft 238 kts 64°
2026-04-25 17:15 70.63556 23.61261 17322 ft 238 kts 64°
2026-04-25 17:16 70.64286 23.65746 17122 ft 238 kts 64°
2026-04-25 17:16 70.65012 23.70224 16923 ft 238 kts 65°
2026-04-25 17:16 70.65735 23.74705 16722 ft 237 kts 65°
2026-04-25 17:16 70.66455 23.79188 16522 ft 238 kts 65°
2026-04-25 17:17 70.67174 23.83679 16321 ft 237 kts 65°
2026-04-25 17:17 70.67879 23.88107 16124 ft 237 kts 65°
2026-04-25 17:17 70.68591 23.92600 15924 ft 237 kts 65°
2026-04-25 17:17 70.69301 23.97100 15721 ft 237 kts 65°
2026-04-25 17:18 70.70008 24.01606 15523 ft 237 kts 65°
2026-04-25 17:18 70.70712 24.06103 15323 ft 237 kts 65°
2026-04-25 17:18 70.71415 24.10605 15123 ft 236 kts 65°
2026-04-25 17:18 70.72114 24.15098 14922 ft 236 kts 65°
2026-04-25 17:19 70.72809 24.19584 14722 ft 235 kts 65°
2026-04-25 17:19 70.73492 24.24014 14525 ft 235 kts 65°
2026-04-25 17:19 70.74181 24.28506 14324 ft 235 kts 65°
2026-04-25 17:19 70.74869 24.33001 14124 ft 235 kts 65°
2026-04-25 17:20 70.75552 24.37493 13924 ft 234 kts 65°
2026-04-25 17:20 70.76225 24.41939 13724 ft 231 kts 65°
2026-04-25 17:20 70.76887 24.46336 13522 ft 228 kts 65°
2026-04-25 17:20 70.77542 24.50699 13322 ft 226 kts 65°
2026-04-25 17:21 70.78192 24.55036 13121 ft 225 kts 65°
2026-04-25 17:21 70.78829 24.59305 12924 ft 225 kts 65°
2026-04-25 17:21 70.79474 24.63631 12723 ft 225 kts 65°
2026-04-25 17:21 70.80113 24.67941 12522 ft 223 kts 65°
2026-04-25 17:22 70.80747 24.72231 12322 ft 222 kts 65°
2026-04-25 17:22 70.80960 24.73670 12274 ft 221 kts 65°
2026-04-25 17:22 70.81988 24.80657 12065 ft 216 kts 65°
2026-04-25 17:22 70.82598 24.84807 11939 ft 214 kts 65°
2026-04-25 17:23 70.83195 24.88876 11815 ft 213 kts 65°
2026-04-25 17:23 70.83797 24.92987 11690 ft 212 kts 65°
2026-04-25 17:23 70.84390 24.97055 11563 ft 207 kts 65°
2026-04-25 17:23 70.84959 25.00987 11435 ft 199 kts 65°
2026-04-25 17:24 70.85509 25.04807 11308 ft 194 kts 66°
2026-04-25 17:24 70.86045 25.08536 11182 ft 190 kts 65°
2026-04-25 17:24 70.86570 25.12205 11055 ft 188 kts 65°
2026-04-25 17:24 70.87087 25.15828 10930 ft 185 kts 65°
2026-04-25 17:25 70.87589 25.19376 10806 ft 184 kts 66°
2026-04-25 17:25 70.88093 25.22944 10680 ft 183 kts 66°
2026-04-25 17:25 70.88591 25.26495 10555 ft 182 kts 66°
2026-04-25 17:25 70.89084 25.30026 10429 ft 180 kts 66°
2026-04-25 17:26 70.89573 25.33540 10304 ft 180 kts 66°
2026-04-25 17:26 70.90057 25.37043 10178 ft 179 kts 66°
2026-04-25 17:26 70.90539 25.40538 10053 ft 178 kts 66°
2026-04-25 17:26 70.91016 25.44022 9927 ft 177 kts 66°
2026-04-25 17:27 70.91482 25.47448 9803 ft 177 kts 66°
2026-04-25 17:27 70.91951 25.50925 9679 ft 177 kts 66°
2026-04-25 17:27 70.92420 25.54409 9553 ft 177 kts 66°
2026-04-25 17:27 70.92577 25.55583 9511 ft 177 kts 66°
2026-04-25 17:28 70.93347 25.61343 9302 ft 175 kts 66°
2026-04-25 17:28 70.93800 25.64776 9176 ft 173 kts 66°
2026-04-25 17:28 70.94243 25.68181 9050 ft 170 kts 66°
2026-04-25 17:28 70.94669 25.71482 8925 ft 168 kts 66°
2026-04-25 17:29 70.95095 25.74800 8799 ft 167 kts 66°
2026-04-25 17:29 70.95516 25.78083 8674 ft 164 kts 66°
2026-04-25 17:29 70.95932 25.81326 8547 ft 163 kts 66°
2026-04-25 17:29 70.96342 25.84521 8421 ft 160 kts 66°
2026-04-25 17:30 70.96746 25.87689 8295 ft 159 kts 66°
2026-04-25 17:30 70.97143 25.90820 8170 ft 156 kts 66°
2026-04-25 17:30 70.97534 25.93916 8040 ft 155 kts 66°
2026-04-25 17:30 70.97923 25.96997 7925 ft 155 kts 66°
2026-04-25 17:31 70.98178 25.99031 7835 ft 154 kts 66°
2026-04-25 17:31 70.98247 26.03279 7672 ft 155 kts 98°
2026-04-25 17:31 70.98012 26.06510 7548 ft 156 kts 99°
2026-04-25 17:31 70.97769 26.09750 7423 ft 156 kts 99°
2026-04-25 17:32 70.97524 26.12999 7298 ft 157 kts 99°
2026-04-25 17:32 70.97359 26.15147 7215 ft 157 kts 99°
2026-04-25 17:32 70.97107 26.18398 7090 ft 157 kts 99°
2026-04-25 17:32 70.97017 26.21611 6966 ft 149 kts 68°
2026-04-25 17:33 70.97592 26.24027 6867 ft 137 kts 43°
2026-04-25 17:33 70.98473 26.26706 6697 ft 133 kts 38°
2026-04-25 17:33 70.98964 26.27883 6608 ft 132 kts 35°
2026-04-25 17:33 70.99974 26.30011 6376 ft 133 kts 27°
2026-04-25 17:34 71.00519 26.30884 6260 ft 134 kts 26°
2026-04-25 17:34 71.01346 26.32197 6086 ft 134 kts 26°
2026-04-25 17:34 71.02173 26.33515 5911 ft 134 kts 26°
2026-04-25 17:34 71.03001 26.34833 5736 ft 134 kts 26°
2026-04-25 17:35 71.04096 26.36590 5504 ft 134 kts 26°
2026-04-25 17:35 71.04653 26.37487 5385 ft 134 kts 26°
2026-04-25 17:35 71.05479 26.38821 5210 ft 134 kts 26°
2026-04-25 17:35 71.06577 26.40594 4979 ft 135 kts 26°
2026-04-25 17:36 71.07127 26.41486 4863 ft 135 kts 26°
2026-04-25 17:36 71.07954 26.42838 4687 ft 134 kts 26°
2026-04-25 17:36 71.08774 26.44186 4512 ft 133 kts 26°
2026-04-25 17:36 71.09592 26.45534 4337 ft 133 kts 26°
2026-04-25 17:37 71.10408 26.46888 4162 ft 133 kts 26°
2026-04-25 17:37 71.11222 26.48243 3987 ft 133 kts 26°
2026-04-25 17:37 71.12035 26.49601 3812 ft 133 kts 26°
2026-04-25 17:37 71.12835 26.50924 3636 ft 130 kts 22°
2026-04-25 17:38 71.13691 26.50627 3459 ft 132 kts 324°
2026-04-25 17:38 71.14012 26.48999 3342 ft 137 kts 284°
2026-04-25 17:38 71.13699 26.45196 3120 ft 141 kts 252°
2026-04-25 17:38 71.13342 26.42385 2945 ft 140 kts 252°
2026-04-25 17:39 71.12921 26.39708 2769 ft 137 kts 245°
2026-04-25 17:39 71.12469 26.37141 2593 ft 135 kts 245°
2026-04-25 17:39 71.12040 26.34652 2532 ft 125 kts 245°
2026-04-25 17:39 71.11592 26.32510 2527 ft 116 kts 237°
2026-04-25 17:40 71.11155 26.30705 2517 ft 94 kts 237°
2026-04-25 17:40 71.10768 26.29149 2524 ft 93 kts 237°
2026-04-25 17:40 71.10366 26.27512 2529 ft 98 kts 237°
2026-04-25 17:40 71.09947 26.25803 2540 ft 100 kts 237°
2026-04-25 17:41 71.09547 26.24185 2525 ft 91 kts 237°
2026-04-25 17:41 71.09168 26.22677 2518 ft 88 kts 237°
2026-04-25 17:41 71.08787 26.21179 2432 ft 89 kts 237°
2026-04-25 17:41 71.08395 26.19684 2326 ft 90 kts 235°
2026-04-25 17:42 71.07984 26.18235 2191 ft 92 kts 234°
2026-04-25 17:42 71.07571 26.16731 2051 ft 92 kts 237°
2026-04-25 17:42 71.07190 26.15146 1885 ft 92 kts 238°
2026-04-25 17:42 71.06782 26.13606 1725 ft 93 kts 232°
2026-04-25 17:43 71.06301 26.12266 1564 ft 94 kts 220°
2026-04-25 17:43 71.05740 26.11229 1401 ft 94 kts 211°
2026-04-25 17:43 71.05142 26.10434 1246 ft 93 kts 206°
2026-04-25 17:43 71.04553 26.09739 1114 ft 89 kts 205°
2026-04-25 17:44 71.03967 26.09096 981 ft 89 kts 205°
2026-04-25 17:44 71.03399 26.08398 906 ft 89 kts 206°
2026-04-25 17:44 71.02817 26.07724 826 ft 91 kts 204°
2026-04-25 17:44 71.02230 26.07015 822 ft 90 kts 208°
2026-04-25 17:45 71.01687 26.06014 745 ft 91 kts 219°
2026-04-25 17:45 71.01357 26.05225 672 ft 91 kts 224°
2026-04-25 17:45 71.00958 26.03134 457 ft 86 kts 264°
2026-04-25 17:45 71.00957 26.01250 275 ft 87 kts 273°
2026-04-25 17:46 71.00967 25.99431 65 ft 82 kts 270°
2026-04-25 17:46 71.00968 25.97910 34 ft 55 kts 270°
2026-04-25 17:46 71.00971 25.97573 34 ft 0 kts 272°
2026-04-25 17:48 71.00963 25.97408 30 ft 4 kts 259°
2026-04-25 17:48 71.00959 25.97330 29 ft 4 kts 261°
2026-04-25 17:48 71.00986 25.97279 29 ft 9 kts 65°
2026-04-25 17:49 71.00988 25.97312 29 ft 1 kts 91°
2026-04-25 17:49 71.00981 25.97404 30 ft 7 kts 111°
2026-04-25 17:49 71.00972 25.97562 34 ft 8 kts 91°
2026-04-25 17:49 71.00972 25.97662 35 ft 2 kts 91°
2026-04-25 17:50 71.00966 25.97792 34 ft 10 kts 120°
2026-04-25 17:50 71.00946 25.97825 34 ft 3 kts 175°
2026-04-25 17:50 71.00930 25.97820 33 ft 0 kts 209°
2026-04-25 17:50 71.00928 25.97817 33 ft 2 kts 211°
2026-04-25 17:51 71.00911 25.97765 32 ft 5 kts 233°
2026-04-25 17:51 71.00902 25.97741 32 ft 1 kts 198°
2026-04-25 17:51 71.00896 25.97755 32 ft 0 kts 91°